EW4907 Weather Reports


Display with metric or nautical units.
time (UTC)temp
F
wind
direction
speed
MPH
gust
MPH
rain 1hr
in
rain 24hr
in
rain mn
in
humidity
%
barometer
mb
20260508140041 61 77 3.0 7.0 0.00 0.00 0.00 82 1014.8
20260508134540 61 73 2.0 6.0 0.00 0.00 0.00 83 1014.7
20260508133054 61 72 4.0 9.0 0.00 0.00 0.00 82 1014.7
20260508131539 60 41 3.0 5.0 0.00 0.00 0.00 83 1014.8
20260508130034 60 39 2.0 5.0 0.00 0.00 0.00 83 1014.8
20260508124533 60 59 3.0 6.0 0.00 0.00 0.00 84 1015.0
20260508123048 59 359 3.0 7.0 0.00 0.00 0.00 84 1015.1
20260508121531 59 1 4.0 7.0 0.00 0.00 0.00 85 1014.7
20260508120030 59 38 3.0 6.0 0.00 0.00 0.00 85 1015.1
20260508114529 60 22 2.0 5.0 0.00 0.00 0.00 84 1015.3
20260508113029 60 18 1.0 3.0 0.00 0.00 0.00 81 1015.4
20260508111527 60 25 1.0 5.0 0.00 0.00 0.00 81 1015.5
20260508110027 60 17 2.0 6.0 0.00 0.00 0.00 81 1015.4
20260508104526 60 306 2.0 8.0 0.00 0.00 0.00 81 1015.2
20260508103025 60 22 5.0 10.0 0.00 0.00 0.00 81 1015.2
20260508101524 60 20 4.0 8.0 0.00 0.00 0.00 82 1015.1
20260508100025 60 347 3.0 6.0 0.00 0.00 0.00 82 1014.9
20260508094523 59 27 2.0 6.0 0.00 0.00 0.00 83 1015.2
20260508093025 59 356 2.0 6.0 0.00 0.00 0.00 83 1015.3
20260508091526 60 356 1.0 3.0 0.00 0.00 0.00 83 1015.4
20260508090022 60 314 1.0 2.0 0.00 0.00 0.00 82 1015.2
20260508084517 60 38 1.0 3.0 0.00 0.00 0.00 79 1015.0
20260508083117 60 28 0.0 3.0 0.00 0.00 0.00 79 1015.2
20260508081521 60 45 0.0 2.0 0.00 0.00 0.00 79 1015.4
20260508080016 60 63 0.0 1.0 0.00 0.00 0.00 78 1015.4
20260508074514 60 63 0.0 3.0 0.00 0.00 0.00 79 1015.3
20260508073015 60 63 2.0 5.0 0.00 0.00 0.00 78 1015.4
20260508071524 60 22 3.0 8.0 0.00 0.00 0.00 78 1015.4
20260508070012 60 56 3.0 9.0 0.00 0.00 0.00 78 1015.5
20260508064511 60 53 4.0 6.0 0.00 0.00 0.00 79 1015.3
20260508063007 60 15 2.0 7.0 0.00 0.00 0.00 78 1016.0
20260508061512 60 3 2.0 5.0 0.00 0.00 0.00 78 1016.3
20260508060005 60 64 3.0 6.0 0.00 0.00 0.00 78 1016.1
20260508054504 60 58 3.0 6.0 0.00 0.00 0.00 77 1015.8
20260508053003 60 60 3.0 6.0 0.00 0.00 0.00 77 1016.4
20260508051601 60 349 3.0 5.0 0.00 0.00 0.00 78 1016.2
20260508050059 60 28 3.0 8.0 0.00 0.00 0.00 78 1015.9
20260508044607 60 352 3.0 10.0 0.00 0.00 0.00 77 1016.2
20260508043111 59 323 2.0 5.0 0.00 0.00 0.00 78 1016.0
20260508041556 60 53 4.0 6.0 0.00 0.00 0.00 77 1015.7
20260508040100 60 30 1.0 4.0 0.00 0.00 0.00 76 1016.2
20260508034557 61 84 0.0 2.0 0.00 0.00 0.00 75 1016.6
20260508033055 61 30 1.0 4.0 0.00 0.00 0.00 73 1016.7
20260508031552 61 307 0.0 4.0 0.00 0.00 0.00 73 1017.0
20260508030059 61 320 1.0 2.0 0.00 0.00 0.00 74 1017.2
20260508024551 61 69 0.0 2.0 0.00 0.00 0.00 73 1016.3
20260508023050 61 61 0.0 4.0 0.00 0.00 0.00 72 1015.9
20260508021550 61 78 3.0 8.0 0.00 0.00 0.00 71 1014.8
20260508020050 62 83 3.0 7.0 0.00 0.00 0.00 69 1014.8
20260508014549 62 60 4.0 9.0 0.00 0.00 0.00 68 1014.5
20260508013048 63 64 5.0 11.0 0.00 0.00 0.00 68 1014.5
20260508011546 63 81 5.0 12.0 0.00 0.00 0.00 67 1015.0
20260508010045 63 52 5.0 11.0 0.00 0.00 0.00 66 1015.4
20260508004550 64 63 8.0 12.0 0.00 0.00 0.00 67 1014.7
20260508003046 64 63 2.0 8.0 0.00 0.00 0.00 67 1015.3
20260508001641 65 36 2.0 8.0 0.00 0.00 0.00 66 1015.7
20260508000039 65 63 2.0 7.0 0.00 0.00 0.00 65 1015.8
20260507234539 66 75 2.0 6.0 0.00 0.00 0.00 63 1016.4
20260507233038 66 59 4.0 9.0 0.00 0.00 0.00 61 1016.3
20260507231546 67 58 3.0 8.0 0.00 0.00 0.00 62 1016.4
20260507230033 66 30 5.0 10.0 0.00 0.00 0.00 63 1016.2
20260507224531 66 15 5.0 13.0 0.00 0.00 0.00 62 1016.7
20260507223030 65 60 4.0 11.0 0.00 0.00 0.00 63 1016.8
20260507221531 65 43 5.0 14.0 0.00 0.00 0.00 62 1016.7
20260507220027 65 349 6.0 12.0 0.00 0.00 0.00 62 1017.2
20260507214528 65 347 5.0 12.0 0.00 0.00 0.00 63 1017.0
20260507213029 65 52 6.0 12.0 0.00 0.00 0.00 63 1016.8
20260507211526 65 39 6.0 18.0 0.00 0.00 0.00 63 1016.7
20260507210026 65 33 7.0 18.0 0.00 0.00 0.00 65 1017.0
20260507204524 64 59 10.0 20.0 0.00 0.00 0.00 63 1016.5
20260507203026 64 89 10.0 18.0 0.00 0.00 0.00 64 1016.7
20260507201522 65 48 10.0 16.0 0.00 0.00 0.00 64 1017.5
20260507200029 65 30 13.0 21.0 0.00 0.00 0.00 62 1017.4
20260507194519 65 39 10.0 17.0 0.00 0.00 0.00 68 1017.2
20260507193017 63 75 6.0 15.0 0.00 0.00 0.00 70 1017.7
20260507191513 63 23 7.0 15.0 0.00 0.00 0.00 72 1017.8
20260507190011 62 44 4.0 12.0 0.00 0.00 0.00 75 1018.2
20260507184511 62 53 9.0 13.0 0.00 0.00 0.00 73 1018.0
20260507183027 62 37 6.0 13.0 0.00 0.00 0.00 73 1018.6
20260507181508 62 48 6.0 13.0 0.00 0.00 0.00 74 1018.7
20260507180005 61 34 6.0 13.0 0.00 0.00 0.00 76 1018.5
20260507174504 60 72 5.0 15.0 0.00 0.00 0.00 78 1018.4
20260507173001 59 27 10.0 16.0 0.00 0.00 0.00 79 1018.1
20260507171614 59 63 9.0 15.0 0.00 0.00 0.00 80 1018.5
20260507170059 58 75 9.0 13.0 0.00 0.00 0.00 83 1018.7
20260507164611 58 54 7.0 12.0 0.00 0.00 0.00 86 1019.1
20260507163057 57 29 8.0 17.0 0.00 0.00 0.00 87 1018.7
20260507161604 57 53 10.0 19.0 0.00 0.00 0.00 87 1018.9
20260507160059 57 354 8.0 20.0 0.00 0.00 0.00 87 1019.0
20260507154554 57 25 8.0 16.0 0.00 0.00 0.00 88 1018.7
20260507153053 57 37 10.0 15.0 0.00 0.00 0.00 88 1019.0
20260507151552 57 24 7.0 19.0 0.00 0.00 0.00 89 1019.0
20260507150052 57 332 8.0 19.0 0.00 0.00 0.00 88 1018.9
20260507144550 56 340 8.0 17.0 0.00 0.00 0.00 89 1019.0
20260507143052 56 43 6.0 15.0 0.00 0.00 0.00 89 1019.1
20260507141552 56 10 5.0 11.0 0.00 0.00 0.00 89 1019.6